Saipan, MP

9:36 PM ChST on March 28, 2017 (GMT +1000)
Saipan International

Weather History for PGSN - October, 2013

Change the Weather History Date:

Monday, October 7, 2013

  Actual Average Record
Temperature  
Mean Temperature 82 °F -  
Max Temperature 87 °F 84 °F 89 °F (2016)
Min Temperature 78 °F 76 °F 73 °F (2007)
Cooling Degree Days 18    
Growing Degree Days 32 (Base 50)    
Moisture  
Dew Point 76 °F    
Average Humidity 84    
Maximum Humidity 94    
Minimum Humidity 72    
Precipitation  
Precipitation 0.18 in - - ()
Sea Level Pressure  
Sea Level Pressure 29.77 in    
Wind  
Wind Speed 11 mph (East)    
Max Wind Speed 17 mph    
Max Gust Speed 24 mph    
Visibility 9 miles    
Events Rain , Thunderstorm    
Averages and records for this station are not official NWS values.
T = Trace of Precipitation, MM = Missing Value Source: NWS Daily Summary

Daily Weather History Graph

Daily Weather History Graph

Search for Another Location

Airport or City:

Trip Planner

Search our weather history database for the weather conditions in past years. The results will help you decide how hot, cold, wet, or windy it might be!

Date:

Astronomy

Oct. 07, 2013 Rise Set
Actual Time 6:07 AM ChST 6:02 PM ChST
Civil Twilight 5:45 AM ChST 6:23 PM ChST
Nautical Twilight 5:21 AM ChST 6:48 PM ChST
Astronomical Twilight 4:56 AM ChST 7:13 PM ChST
Moon 7:51 AM ChST (10/7) 7:43 PM ChST (10/7)
Length of Visible Light 12h 37m
Length of Day
11h 54m
Waxing Crescent, 5% of the Moon is Illuminated
Oct 7
Waxing Crescent
Oct 12
First Quarter
Oct 19
Full
Oct 27
Last Quarter
Nov 3
New

Hourly Weather History & Observations

Time (ChST) Temp. Heat Index Dew Point Humidity Pressure Visibility Wind Dir Wind Speed Gust Speed Precip Events Conditions
12:54 AM 82.0 °F 89.4 °F 75.9 °F 82% 29.81 in 10.0 mi ENE 12.7 mph - N/A   Scattered Clouds
1:54 AM 80.1 °F 85.4 °F 75.9 °F 87% 29.79 in 10.0 mi NE 8.1 mph - N/A   Scattered Clouds
2:54 AM 81.0 °F 87.3 °F 75.9 °F 85% 29.78 in 10.0 mi ENE 9.2 mph - N/A   Clear
3:54 AM 80.1 °F 85.4 °F 75.9 °F 87% 29.76 in 10.0 mi NE 5.8 mph - 0.03 in   Mostly Cloudy
4:54 AM 81.0 °F 87.3 °F 75.9 °F 85% 29.76 in 10.0 mi NE 11.5 mph - N/A   Scattered Clouds
5:54 AM 81.0 °F 87.3 °F 75.9 °F 85% 29.76 in 10.0 mi NE 10.4 mph - N/A   Scattered Clouds
6:54 AM 82.9 °F 91.8 °F 77.0 °F 82% 29.79 in 10.0 mi NE 13.8 mph - N/A   Partly Cloudy
7:54 AM 84.0 °F 93.7 °F 77.0 °F 79% 29.81 in 10.0 mi ENE 13.8 mph - N/A   Partly Cloudy
8:54 AM 84.9 °F 96.6 °F 78.1 °F 80% 29.82 in 10.0 mi ENE 17.3 mph 23.0 mph N/A   Scattered Clouds
9:54 AM 86.0 °F 96.9 °F 77.0 °F 74% 29.82 in 10.0 mi East 17.3 mph 24.2 mph N/A   Scattered Clouds
10:54 AM 87.1 °F 98.8 °F 77.0 °F 72% 29.81 in 10.0 mi East 13.8 mph - N/A   Clear
11:54 AM 86.0 °F 96.9 °F 77.0 °F 74% 29.79 in 10.0 mi East 15.0 mph - N/A   Partly Cloudy
12:54 PM 84.9 °F 95.3 °F 77.0 °F 77% 29.76 in 10.0 mi ENE 12.7 mph - N/A   Scattered Clouds
1:54 PM 87.1 °F 98.8 °F 77.0 °F 72% 29.73 in 10.0 mi ENE 15.0 mph - N/A   Clear
2:54 PM 86.0 °F 96.9 °F 77.0 °F 74% 29.71 in 10.0 mi ENE 16.1 mph - N/A   Clear
3:54 PM 86.0 °F 96.9 °F 77.0 °F 74% 29.72 in 10.0 mi ENE 17.3 mph - N/A   Partly Cloudy
4:54 PM 84.9 °F 95.3 °F 77.0 °F 77% 29.75 in 10.0 mi ENE 15.0 mph - N/A   Scattered Clouds
5:01 PM 84.2 °F 92.3 °F 75.2 °F 74% 29.68 in 10.0 mi East 13.8 mph - N/A   Mostly Cloudy
5:26 PM 80.6 °F 86.2 °F 75.2 °F 84% 29.69 in 10.0 mi NE 11.5 mph - 0.00 in Rain Light Rain
5:54 PM 81.0 °F 87.3 °F 75.9 °F 85% 29.75 in 10.0 mi East 10.4 mph - 0.00 in   Partly Cloudy
6:54 PM 82.0 °F 89.4 °F 75.9 °F 82% 29.78 in 10.0 mi East 9.2 mph - N/A   Clear
7:54 PM 80.1 °F 85.4 °F 75.9 °F 87% 29.79 in 10.0 mi ESE 6.9 mph - 0.06 in   Clear
8:54 PM 80.1 °F 85.4 °F 75.9 °F 87% 29.82 in 10.0 mi East 6.9 mph - 0.00 in   Mostly Cloudy
9:26 PM 78.8 °F - 75.2 °F 89% 29.76 in 10.0 mi ESE 6.9 mph - N/A   Mostly Cloudy
9:34 PM 78.8 °F - 77.0 °F 94% 29.76 in 10.0 mi ESE 5.8 mph - N/A   Mostly Cloudy
9:54 PM 79.0 °F - 77.0 °F 94% 29.82 in 10.0 mi ESE 6.9 mph - N/A   Scattered Clouds
10:51 PM 80.6 °F 87.1 °F 77.0 °F 89% 29.74 in 10.0 mi ESE 6.9 mph - 0.00 in   Overcast
10:54 PM 80.1 °F 85.8 °F 77.0 °F 90% 29.81 in 10.0 mi ESE 10.4 mph - 0.00 in Rain Light Rain
11:03 PM 78.8 °F - 75.2 °F 89% 29.73 in 10.0 mi ESE 8.1 mph - 0.00 in Rain Light Rain
11:19 PM 80.6 °F 87.1 °F 77.0 °F 89% 29.74 in 10.0 mi SE 5.8 mph - 0.00 in   Mostly Cloudy
11:26 PM 80.6 °F 87.1 °F 77.0 °F 89% 29.73 in 10.0 mi ESE 9.2 mph - 0.00 in   Scattered Clouds
11:39 PM 78.8 °F - 77.0 °F 94% 29.74 in 3.0 mi East 9.2 mph - 0.01 in Rain Heavy Rain
11:43 PM 78.8 °F - 75.2 °F 89% 29.74 in 1.8 mi ENE 16.1 mph - 0.09 in Rain Heavy Rain
11:54 PM 78.1 °F - 75.9 °F 93% 29.80 in 4.0 mi ENE 9.2 mph 19.6 mph N/A Rain , Thunderstorm Light Thunderstorms and Rain